Location: Bamobli
(6.6379°N, 10.9396°W)
Time: 23:48:13
(UTC+00:00)

N. Korean satellite - Pass Details

Date: 08 March 2021
Orbit: 453 x 499 km, 97.2° (Epoch: 11 April)

Event Time Altitude Azimuth Distance (km) Brightness Sun altitude
Rises 06:28:00 0° 346° (NNW) 2,553 10.0 -7.1°
Reaches altitude 10° 06:30:30 10° 328° (NNW) 1,681 9.0 -6.5°
Maximum altitude 06:33:05 19° 282° (WNW) 1,245 8.0 -5.9°
Drops below altitude 10° 06:35:41 10° 236° (WSW) 1,695 8.8 -5.2°
Sets 06:38:13 0° 218° (SW) 2,582 9.9 -4.6°
